Hourly Weather Roundup
Issued by NWS Central Illinois

Home | Current Version | Previous Version | Text Only | Print | Product List | Glossary On
Versions: 1 2 3 4 5 6 7 8 9 10 11 12 13 14 15 16 17 18 19 20 21 22 23 24 25 26 27 28 29 30 31 32 33 34 35 36 37 38 39 40 41 42 43 44 45 46 47 48 49 50
000
NZUS43 KILX 091310
HWRILX

Area Weather Roundup
National Weather Service Lincoln IL
700 AM CST SAT DEC 09 2017

NOTE:  "FAIR" indicates few or no clouds below 12,000 feet, with
       no sigificant weather and/or obstructions to visibility.


CITY           SKY/WX    TMP DP  RH WIND       PRES   REMARKS
Bloomington    CLOUDY    29  24  82 NW12      29.76R WCI  19
Champaign      CLOUDY    31  23  72 W14       29.75R WCI  21
Danville       CLOUDY    28  21  74 SW8       29.72R WCI  20
Decatur        CLOUDY    30  23  75 W9        29.78R WCI  22
Effingham      CLOUDY    31  22  71 W9        29.82R WCI  23
Flora          CLOUDY    31  21  66 W9        29.84R WCI  23
Galesburg      PTCLDY    28  20  70 NW16      29.82R WCI  17
Jacksonville   CLOUDY    30  22  70 W12       29.84R WCI  21
Lacon          CLOUDY    30  24  77 NW10      29.78R WCI  21
Lawrenceville  CLOUDY    29  19  66 SW10      29.82S WCI  20
Litchfield     CLOUDY    30  24  77 W15G21    29.83R WCI  19
$$


CITY           SKY/WX    TMP DP  RH WIND       PRES   REMARKS
Lincoln        CLOUDY    31  25  78 W9        29.79R WCI  23
Macomb         CLOUDY    31  22  70 NW16G22   29.86R WCI  20
Mattoon        CLOUDY    29  22  75 W12       29.77R WCI  19
Mt Carmel AP   CLOUDY    29  19  65 SW13      29.81F WCI  19
Olney-Noble AP CLOUDY    29  16  59 W7        29.83R WCI  22
Paris AP       CLOUDY    29  22  75 W10       29.78R WCI  20
Peoria         CLOUDY    31  23  72 NW10      29.80R WCI  22
Pontiac        CLOUDY    31  27  84 W14       29.74R WCI  21
Rantoul        CLOUDY    32  25  76 W10       29.74R WCI  24
Robinson       CLOUDY    29  18  63 SW12      29.82R WCI  20
Springfield    CLOUDY    32  23  69 NW10G21   29.82R WCI  24
Taylorville    CLOUDY    30  24  76 W12       29.81R WCI  21
$$

...REGIONAL REPORTS...


CITY           SKY/WX    TMP DP  RH WIND       PRES   REMARKS
Chicago O`Hare LGT SNOW  30  25  81 NW12      29.67R WCI  20
Kankakee       FLURRIES  29  26  88 W13       29.71S WCI  19
Moline         PTCLDY    29  18  63 NW14G23   29.83R WCI  18
Mount Sterling CLOUDY    31  21  66 NW18G26   29.85R WCI  19
Mount Vernon   FLURRIES  29  21  72 W7        29.85S WCI  22
Pittsfield     CLOUDY    31  24  76 W9        29.87R WCI  23
Quincy         CLOUDY    30  23  75 NW16      29.87R WCI  19
Rockford       CLOUDY    27  19  72 N20G29    29.77R WCI  13
$$


CITY           SKY/WX    TMP DP  RH WIND       PRES   REMARKS
Burlington     CLOUDY    31  23  72 NW13      29.85R WCI  21
Cedar Rapids   CLOUDY    28  16  60 N17       29.88R WCI  16
Des Moines     CLOUDY    24  16  71 NW15      30.00R WCI  11
Kirksville     CLEAR     28  22  78 NW10      29.93R WCI  19
Ottumwa        CLEAR     25  18  74 NW16G29   29.93R WCI  12
St Louis       MOCLDY    32  24  72 NW16G26   29.87R WCI  21
$$


CITY           SKY/WX    TMP DP  RH WIND       PRES   REMARKS
Terre Haute    CLOUDY    29  17  61 SW9       29.78R WCI  20
Evansville     CLOUDY    28  21  75 SW8       29.86S WCI  20
Indianapolis   CLOUDY    26  15  63 S14       29.75F WCI  14
Lafayette      CLOUDY    26  22  84 SW6       29.73S WCI  19
Madison        FLURRIES  24  18  77 N17G24    29.79R WCI  11
Milwaukee      FLURRIES  28  23  81 NW13G21   29.69R WCI  17
$$






USA.gov is the U.S. government's official web portal to all federal, state and local government web resources and services.